Weather History for Kansas City International, MO

Change the Weather History Date:

Wednesday, December 5, 2012

  Actual Average Record
Temperature  
Mean Temperature 48 °F 34 °F  
Max Temperature 60 °F 43 °F 74 °F (2001)
Min Temperature 35 °F 25 °F 4 °F (1950)
Degree Days  
Heating Degree Days 17 31  
Month to date heating degree days 57 150  
Since 1 July heating degree days 1004 1152  
Cooling Degree Days 0 0  
Month to date cooling degree days 0 0  
Year to date cooling degree days 1839 1360  
Moisture  
Dew Point 27 °F    
Average Humidity 47    
Maximum Humidity 64    
Minimum Humidity 30    
Precipitation  
Precipitation 0.00 in 0.06 in 1.65 in (1913)
Month to date precipitation T 0.30  
Year to date precipitation 20.94 37.63  
Snow  
Snow 0.00 in 0.10 in 8.50 in (1942)
Month to date snowfall 0.0 0.6  
Since 1 July snowfall T 2.0  
Snow Depth 0.00 in    
Sea Level Pressure  
Sea Level Pressure 30.20 in    
Wind  
Wind Speed 9 mph (South)    
Max Wind Speed 21 mph    
Max Gust Speed 24 mph    
Visibility 10 miles    
Events      
T = Trace of Precipitation, MM = Missing Value Source: NWS Daily Summary

Daily Weather History Graph

Daily Weather History Graph

Search for Another Location

Airport:

Trip Planner

Search our weather history database for the weather conditions in past years. The results will help you decide how hot, cold, wet, or windy it might be!

Date:

Astronomy

Dec. 05, 2012 Rise Set
Actual Time 7:23 AM CST 4:55 PM CST
Civil Twilight 6:54 AM CST 5:25 PM CST
Nautical Twilight 6:20 AM CST 5:58 PM CST
Astronomical Twilight 5:48 AM CST 6:31 PM CST
Moon 11:44 PM CST (12/5) 11:49 AM CST (12/5)
Length of Visible Light 10h 31m
Length of Day
9h 31m
Waning Gibbous, 59% of the Moon is Illuminated
Dec 5
Waning Gibbous
Dec 6
Last Quarter
Dec 13
New
Dec 19
First Quarter
Dec 28
Full

Hourly Weather History & Observations

Time (CST) Temp. Windchill Dew Point Humidity Pressure Visibility Wind Dir Wind Speed Gust Speed Precip Events Conditions
12:53 AM 44.1 °F 40.8 °F 21.9 °F 42% 30.32 in 10.0 mi SSW 5.8 mph - N/A   Scattered Clouds
1:53 AM 42.1 °F 38.4 °F 21.9 °F 45% 30.32 in 10.0 mi SSW 5.8 mph - N/A   Scattered Clouds
2:53 AM 42.1 °F 38.4 °F 23.0 °F 47% 30.32 in 10.0 mi SSW 5.8 mph - N/A   Clear
3:53 AM 41.0 °F 37.1 °F 23.0 °F 49% 30.31 in 10.0 mi South 5.8 mph - N/A   Clear
4:53 AM 39.9 °F 35.8 °F 23.0 °F 51% 30.31 in 10.0 mi South 5.8 mph - N/A   Clear
5:53 AM 39.0 °F 34.0 °F 23.0 °F 53% 30.32 in 10.0 mi South 6.9 mph - N/A   Clear
6:53 AM 37.9 °F - 23.0 °F 55% 30.32 in 10.0 mi Calm Calm - N/A   Partly Cloudy
8:53 AM 44.1 °F 39.5 °F 30.9 °F 60% 30.31 in 10.0 mi SE 8.1 mph - N/A   Overcast
9:53 AM 48.9 °F - 28.9 °F 46% 30.31 in 10.0 mi SE 4.6 mph - N/A   Overcast
10:53 AM 52.0 °F - 28.0 °F 40% 30.29 in 10.0 mi SSE 8.1 mph - N/A   Overcast
11:53 AM 55.0 °F - 30.0 °F 38% 30.26 in 10.0 mi South 8.1 mph - N/A   Overcast
12:53 PM 57.0 °F - 28.9 °F 34% 30.22 in 10.0 mi South 9.2 mph - N/A   Overcast
1:53 PM 57.0 °F - 26.1 °F 30% 30.19 in 10.0 mi South 11.5 mph - N/A   Overcast
2:53 PM 57.9 °F - 26.1 °F 30% 30.15 in 10.0 mi South 16.1 mph - N/A   Overcast
3:53 PM 57.0 °F - 27.0 °F 32% 30.13 in 10.0 mi SSE 12.7 mph - N/A   Mostly Cloudy
4:53 PM 50.0 °F - 27.0 °F 41% 30.12 in 10.0 mi South 9.2 mph - N/A   Mostly Cloudy
5:53 PM 48.0 °F - 28.9 °F 48% 30.12 in 10.0 mi SSE 9.2 mph - N/A   Mostly Cloudy
6:53 PM 51.1 °F - 28.9 °F 43% 30.09 in 10.0 mi SSE 12.7 mph - N/A   Mostly Cloudy
7:53 PM 50.0 °F - 28.0 °F 43% 30.08 in 10.0 mi SSE 11.5 mph - N/A   Mostly Cloudy
8:53 PM 48.0 °F - 28.0 °F 46% 30.07 in 10.0 mi SSE 10.4 mph - N/A   Scattered Clouds
9:53 PM 46.9 °F - 28.9 °F 50% 30.04 in 10.0 mi SSE 11.5 mph - N/A   Partly Cloudy
10:53 PM 48.0 °F - 28.0 °F 46% 30.02 in 10.0 mi South 15.0 mph - N/A   Scattered Clouds
11:53 PM 48.9 °F - 28.9 °F 46% 30.01 in 10.0 mi South 18.4 mph - N/A   Scattered Clouds